RH
77 76 76 76 74 71 71 72 62 64 65 63 60 53 56 68 77 76 85 91 91 83
75 73 72 72 72 70 67 50 52 64 63 54 45 47 58 54 50 59 78 81 82 80
70 67 65 63 62 62 59 58 57 50 48 38 40 40 58 42 37 55 54 46 71 74
62 58 55 56 56 55 54 53 48 46 40 38 38 37 52 34 35 47 43 53 57 77
53 53 52 53 52 49 50 47 42 43 38 36 37 40 37 35 46 46 50 52 63 57
49 50 49 49 48 44 43 40 38 39 39 36 39 36 34 35 40 44 49 60 52 45
46 46 45 45 44 43 43 42 39 37 37 37 37 35 33 40 45 48 52 53 47 43
43 43 43 45 45 44 44 39 39 38 36 37 37 28 43 45 48 51 50 47 47 49
42 44 46 45 44 44 42 40 41 40 40 40 34 48 52 51 51 50 51 55 54 54
43 46 46 44 43 43 43 45 43 42 42 43 42 52 55 57 51 55 58 59 59 58
45 46 46 46 46 48 45 45 45 44 45 46 42 55 58 60 56 59 60 60 62 64
46 48 48 48 48 47 47 48 47 46 47 50 49 58 61 60 58 60 62 62 63 72
48 50 50 51 50 50 51 48 48 50 50 54 53 60 63 59 57 63 65 66 84 65
50 52 51 52 54 52 54 54 56 54 52 55 58 62 63 62 55 59 77 87 64 58
Wind_Speed
7 5 4 5 5 5 4 4 7 9 8 9 9 9 8 7 7 8 7 9 7 8
7 7 6 6 4 4 5 7 9 7 7 8 10 10 8 8 10 10 7 8 7 8
6 6 6 6 7 7 6 6 7 7 8 9 10 11 8 10 11 9 8 10 11 10
6 7 6 5 5 6 6 7 7 8 9 9 10 11 10 12 12 11 13 11 13 12
6 6 6 6 6 6 6 6 7 8 9 10 10 10 11 11 9 12 13 13 12 12
6 6 6 6 6 6 7 8 8 8 9 10 10 11 11 9 13 12 13 9 12 14
6 6 6 6 7 7 7 7 8 9 9 10 11 12 10 14 14 13 11 10 12 13
5 5 6 6 7 6 6 7 8 10 10 10 10 9 15 15 15 14 14 13 13 13
5 6 6 6 7 6 8 9 9 10 11 12 9 24 25 22 15 14 15 15 15 14
6 6 6 7 7 9 9 8 10 10 11 12 12 24 26 26 13 14 14 15 15 15
5 6 7 7 7 7 7 9 10 11 11 12 12 24 26 27 14 13 14 15 16 15
5 6 6 7 8 9 9 10 10 10 12 12 13 24 25 24 15 14 15 14 14 15
6 6 7 7 9 6 8 11 10 13 11 15 14 20 26 24 12 14 13 15 12 24
6 6 7 6 6 8 10 10 10 12 11 11 12 14 26 28 15 12 13 11 13 13
Wind_Direction
47 49 43 32 19 12 1 337 344 345 345 340 337 334 329 324 317 314 308 304 313 307
44 41 30 17 8 354 351 353 348 334 334 335 332 330 325 331 321 319 310 324 304 309
42 32 23 16 9 356 341 342 334 337 337 337 333 333 329 330 322 321 334 323 317 310
33 27 18 8 352 348 337 336 338 334 335 334 333 333 329 328 321 335 324 321 312 314
27 17 10 360 344 335 328 325 333 333 334 333 331 326 325 315 317 322 318 314 330 320
22 10 357 344 332 335 339 340 337 336 332 327 324 324 313 315 319 316 314 322 323 316
10 358 340 330 336 338 335 328 329 329 326 325 323 319 323 324 321 321 318 320 317 313
346 340 328 331 330 318 320 327 323 324 324 321 322 326 330 324 322 318 320 319 315 308
353 344 335 323 319 321 327 327 323 323 321 325 324 326 327 328 320 319 320 316 312 309
352 332 310 317 330 333 326 317 324 324 325 319 318 321 325 325 320 320 313 306 306 306
326 315 324 324 317 315 322 326 321 316 312 310 311 320 325 325 321 310 302 301 302 303
329 321 316 320 324 324 323 318 312 309 310 307 308 321 324 326 317 308 306 305 308 308
312 313 324 311 314 304 304 307 309 308 301 305 312 313 322 325 316 311 312 311 307 308
318 311 292 298 293 305 308 302 301 304 313 309 303 309 321 324 319 316 314 315 312 306